Lid_Strength_Index
0 1 2 3 10 11 13 11 8 9 9 6 5 6 7 7 8 12 3 1 0 0 0 -1 -1 -1 -1 -1 -1 -1 -1 -1 -1 -1 -1 -1 -1 -1 -1 -1 -1 -1 -1 -1 -1 -1 -1 -2 -2
2 2 2 6 12 15 13 10 10 9 7 5 5 6 7 8 4 4 3 1 -0 -0 0 0 -1 -1 -1 -1 -1 -1 -1 -1 -1 -1 -1 -1 -1 -1 -1 -1 -1 -1 -1 -1 -1 -1 -1 -1 -1
2 2 6 10 13 15 14 10 9 7 6 6 7 5 6 7 4 3 1 0 -0 0 -0 -0 -1 -1 -1 -2 -2 -1 -1 -1 -1 -1 -1 -1 -1 -1 -1 -1 -1 -1 -1 -1 -1 -1 -1 -1 -1
3 4 6 12 14 11 10 8 7 7 6 5 5 8 5 3 3 2 0 0 0 0 -0 -1 -1 -1 -2 -2 -2 -1 -2 -1 -1 -1 -1 -1 -1 -1 -1 -1 -1 -1 -1 -1 -1 -1 -1 -1 -1
4 7 11 13 12 10 8 8 7 7 7 7 6 8 7 3 1 1 1 0 1 0 0 -0 -1 -1 -2 -2 -2 -2 -2 -1 -2 -1 -1 -1 -1 -1 -1 -1 -1 -0 -0 -1 -1 -1 -1 -1 -1
7 7 12 14 11 8 9 7 7 8 7 6 7 7 6 2 2 1 0 1 -0 0 -0 -0 -1 -2 -2 -2 -2 -1 -1 -1 -1 -1 -1 -0 -1 -0 -1 -0 -1 -1 -1 -1 -2 -2 -2 -2 -2
8 10 13 12 11 9 8 8 7 7 7 7 5 8 6 4 2 1 1 0 0 -0 0 0 0 -1 -1 -2 -2 -1 -0 -0 -0 0 1 0 -1 -1 -1 -1 -1 -1 -1 -2 -2 -2 -2 -2 -2
6 8 12 11 11 11 8 8 8 6 7 4 4 8 8 4 2 1 1 2 0 0 -0 1 1 0 1 0 -1 -0 -0 0 0 0 0 -0 -1 -0 -1 -1 -1 -1 -2 -2 -2 -2 -3 -3 -2
6 10 12 11 10 10 8 8 7 6 6 5 4 5 4 2 2 2 3 2 1 1 1 1 1 1 1 1 1 -0 0 0 0 1 0 3 2 3 2 1 -1 -1 -2 -2 -2 -2 -2 -2 -0
8 11 11 9 8 9 8 8 7 7 6 6 5 4 3 3 3 3 3 3 3 2 1 1 1 1 2 -0 1 2 1 1 2 4 4 5 5 3 2 1 -1 -1 -2 -1 -1 -1 -1 0 3
9 10 9 8 7 7 7 6 5 7 8 6 6 5 5 7 4 4 3 3 3 2 1 1 1 2 2 2 2 2 1 1 3 4 4 5 4 4 5 5 4 4 0 3 2 2 3 3 3
9 7 7 7 6 6 7 6 7 7 6 4 4 4 4 6 7 4 4 5 5 3 1 1 1 2 2 2 3 2 1 1 2 3 3 3 3 3 3 4 3 4 3 3 3 3 3 2 2
8 7 6 6 6 6 5 7 7 7 5 3 3 4 5 5 7 6 5 6 7 4 2 2 2 2 3 3 3 3 2 1 1 3 2 2 3 2 2 3 3 3 2 3 3 3 3 3 2
7 7 7 6 6 6 7 8 6 6 4 4 4 5 5 5 5 7 8 8 8 7 5 4 2 2 2 3 4 4 3 2 2 2 2 2 3 3 2 3 3 3 2 3 3 3 3 3 2
7 8 7 7 6 7 6 9 9 6 5 5 5 4 4 4 4 6 7 8 8 7 5 3 3 2 3 3 4 4 4 2 2 2 2 2 3 2 2 3 3 3 3 3 3 3 3 3 2
8 9 11 8 7 7 7 12 8 5 6 6 5 5 4 4 4 5 7 8 7 6 4 3 2 4 4 3 4 3 4 2 2 2 2 1 2 2 2 3 3 2 3 3 3 3 3 3 3
10 13 12 10 7 8 9 11 7 6 6 6 6 5 5 5 4 5 6 7 7 5 5 4 4 4 4 3 3 4 4 3 2 1 2 2 1 2 3 2 3 3 3 3 3 3 3 3 3
13 12 12 12 9 9 10 10 7 6 6 7 6 6 5 5 5 4 5 6 6 5 5 4 4 4 3 3 4 4 4 3 3 2 2 1 2 1 3 2 2 3 3 3 3 4 3 3 3
10 10 12 11 8 10 11 10 9 7 7 7 7 6 6 5 4 3 4 5 5 5 5 5 5 4 4 5 5 5 4 3 3 3 1 2 2 1 3 2 3 3 3 3 3 3 4 4 3
9 11 12 10 8 10 11 11 9 8 8 7 7 6 6 5 4 4 4 5 5 5 5 5 5 4 4 4 4 4 3 3 2 2 2 2 2 2 2 2 3 3 3 3 3 4 5 5 4
11 11 12 12 10 9 11 12 11 8 7 7 6 6 5 5 5 5 4 5 5 4 5 5 5 5 5 5 4 4 3 3 3 3 3 3 2 2 2 2 3 4 3 3 3 4 5 5 4
13 9 9 10 12 15 10 17 12 10 9 8 7 6 6 5 5 4 4 4 4 4 5 4 5 5 4 5 4 5 4 4 4 4 3 2 2 2 2 2 2 3 4 4 3 3 4 5 5
11 8 9 10 12 13 13 15 13 10 11 9 7 6 6 5 5 5 4 4 4 3 4 5 5 5 5 5 3 3 3 4 3 3 3 3 3 2 2 2 2 3 3 4 3 3 4 5 5
7 9 10 11 13 17 14 14 14 12 10 9 7 6 5 5 6 5 4 4 4 3 4 4 5 5 5 3 3 3 3 4 4 4 4 3 3 3 2 2 3 3 3 3 3 3 4 4 4
9 12 15 16 17 18 12 14 13 9 8 8 7 6 6 5 5 5 4 4 4 3 4 4 5 4 3 3 3 2 2 4 3 3 4 3 4 3 3 3 3 3 3 3 3 4 3 4 4
11 12 14 18 19 17 12 16 13 8 7 7 6 6 6 5 6 5 4 4 4 4 3 4 3 4 2 2 2 2 2 3 3 3 3 4 4 3 2 2 3 3 2 2 2 2 3 3 4
10 12 11 14 15 17 15 13 10 8 8 7 7 7 6 6 5 5 4 4 4 4 4 3 3 3 3 2 3 3 2 3 3 2 2 3 3 3 2 2 3 2 2 2 1 2 3 4 3
9 9 13 13 18 20 17 16 15 11 10 8 8 7 6 6 5 5 4 4 3 3 3 3 3 3 2 2 2 2 2 2 3 3 3 3 3 3 3 3 3 3 1 1 2 3 5 4 4
11 12 12 12 14 19 19 16 10 10 9 9 7 7 7 7 6 5 4 3 3 3 3 3 3 3 2 2 2 3 3 3 3 3 3 3 3 3 3 2 3 2 4 5 5 6 6 6 5
9 11 11 14 16 15 16 15 8 9 8 8 7 7 7 6 6 5 4 4 3 3 3 3 3 2 2 2 3 4 3 3 3 3 3 3 3 3 2 2 3 5 6 7 8 8 8 7 6